Quantico, VA

11:42 AM EDT on April 27, 2017 (GMT -0400)
Quantico Marine Corps Air Facility

Weather History for KNYG - February, 2013

Change the Weather History Date:

Friday, February 8, 2013

  Actual Average Record
Temperature  
Mean Temperature 38 °F -  
Max Temperature 44 °F 44 °F 88 °F (2009)
Min Temperature 33 °F 28 °F 10 °F (2007)
Degree Days  
Heating Degree Days 26    
Moisture  
Dew Point 31 °F    
Average Humidity 77    
Maximum Humidity 89    
Minimum Humidity 50    
Precipitation  
Precipitation 0.20 in - - ()
Sea Level Pressure  
Sea Level Pressure 29.95 in    
Wind  
Wind Speed 10 mph (North)    
Max Wind Speed 23 mph    
Max Gust Speed 40 mph    
Visibility 10 miles    
Events Rain    
Averages and records for this station are not official NWS values.
T = Trace of Precipitation, MM = Missing Value Source: NWS Daily Summary

Daily Weather History Graph

Daily Weather History Graph

Search for Another Location

Airport or City:

Trip Planner

Search our weather history database for the weather conditions in past years. The results will help you decide how hot, cold, wet, or windy it might be!

Date:

Astronomy

Feb. 08, 2013 Rise Set
Actual Time 7:07 AM EST 5:39 PM EST
Civil Twilight 6:40 AM EST 6:07 PM EST
Nautical Twilight 6:08 AM EST 6:38 PM EST
Astronomical Twilight 5:37 AM EST 7:09 PM EST
Moon 5:34 AM EST (2/8) 4:11 PM EST (2/8)
Length of Visible Light 11h 27m
Length of Day
10h 32m
Waning Crescent, 3% of the Moon is Illuminated
Feb 8
Waning Crescent
Feb 10
New
Feb 17
First Quarter
Feb 25
Full
Mar 4
Last Quarter

Hourly Weather History & Observations

Time (EST) Temp. Windchill Dew Point Humidity Pressure Visibility Wind Dir Wind Speed Gust Speed Precip Events Conditions
12:56 AM 37.0 °F 29.8 °F 30.0 °F 76% 30.18 in 10.0 mi ENE 10.4 mph - 0.02 in Rain Light Rain
1:56 AM 36.0 °F 29.0 °F 30.0 °F 79% 30.15 in 10.0 mi ENE 9.2 mph - 0.02 in Rain Light Rain
2:56 AM 35.1 °F 27.4 °F 30.0 °F 82% 30.12 in 8.0 mi NE 10.4 mph - 0.04 in Rain Light Rain
3:03 AM 35.6 °F 29.2 °F 30.2 °F 81% 30.12 in 9.0 mi ENE 8.1 mph - 0.01 in Rain Light Rain
3:56 AM 35.1 °F 27.9 °F 30.9 °F 85% 30.09 in 9.0 mi NE 9.2 mph - 0.04 in Rain Light Rain
4:46 AM 35.6 °F 29.2 °F 30.2 °F 81% 30.06 in 10.0 mi NNE 8.1 mph - 0.03 in Rain Light Rain
4:56 AM 35.1 °F 28.6 °F 30.9 °F 85% 30.05 in 10.0 mi NNE 8.1 mph - 0.04 in Rain Light Rain
5:04 AM 35.6 °F 29.2 °F 30.2 °F 81% 30.04 in 10.0 mi North 8.1 mph - 0.00 in Rain Light Rain
5:12 AM 33.8 °F 27.0 °F 30.2 °F 87% 30.04 in 10.0 mi North 8.1 mph - 0.00 in Rain Light Rain
5:23 AM 33.8 °F 27.0 °F 30.2 °F 87% 30.03 in 10.0 mi North 8.1 mph - 0.00 in Rain Light Rain
5:40 AM 33.8 °F 27.0 °F 30.2 °F 87% 30.02 in 9.0 mi North 8.1 mph - 0.01 in Rain Light Rain
5:56 AM 35.1 °F 28.6 °F 30.9 °F 85% 30.02 in 8.0 mi North 8.1 mph - 0.01 in Rain Light Rain
6:56 AM 35.1 °F 28.6 °F 32.0 °F 89% 29.99 in 9.0 mi North 8.1 mph - 0.02 in Rain Light Rain
7:56 AM 36.0 °F 28.5 °F 32.0 °F 86% 29.96 in 6.0 mi NNE 10.4 mph - 0.01 in Rain Light Rain
8:56 AM 37.0 °F 31.0 °F 33.1 °F 86% 29.92 in 7.0 mi North 8.1 mph - 0.00 in   Overcast
9:56 AM 39.0 °F 32.3 °F 35.1 °F 86% 29.88 in 10.0 mi North 10.4 mph - N/A   Overcast
10:56 AM 39.9 °F 33.4 °F 36.0 °F 86% 29.87 in 10.0 mi North 10.4 mph - N/A   Overcast
11:56 AM 42.1 °F 36.6 °F 37.0 °F 82% 29.84 in 10.0 mi North 9.2 mph - N/A   Overcast
12:25 PM 42.8 °F 37.0 °F 37.4 °F 81% 29.82 in 10.0 mi North 10.4 mph - N/A   Overcast
12:56 PM 43.0 °F 36.4 °F 37.0 °F 80% 29.80 in 10.0 mi North 12.7 mph - N/A   Overcast
1:56 PM 43.0 °F 36.4 °F 36.0 °F 76% 29.79 in 10.0 mi NNW 12.7 mph 18.4 mph N/A   Overcast
2:56 PM 42.1 °F 37.1 °F 37.0 °F 82% 29.77 in 10.0 mi North 8.1 mph - N/A   Overcast
3:56 PM 42.1 °F 35.7 °F 36.0 °F 79% 29.79 in 10.0 mi North 11.5 mph - N/A   Overcast
4:56 PM 43.0 °F 37.7 °F 35.1 °F 74% 29.80 in 10.0 mi NW 9.2 mph - N/A   Mostly Cloudy
5:56 PM 42.1 °F 36.6 °F 35.1 °F 76% 29.82 in 10.0 mi NNW 9.2 mph - 0.00 in   Clear
6:56 PM 43.0 °F 36.4 °F 32.0 °F 65% 29.83 in 10.0 mi NNW 12.7 mph 21.9 mph N/A   Mostly Cloudy
7:56 PM 44.1 °F 35.2 °F 28.0 °F 53% 29.86 in 10.0 mi NW 23.0 mph 31.1 mph N/A   Mostly Cloudy
8:56 PM 41.0 °F 32.5 °F 24.1 °F 51% 29.88 in 10.0 mi NW 17.3 mph 31.1 mph N/A   Clear
9:56 PM 39.0 °F 29.0 °F 21.9 °F 50% 29.93 in 10.0 mi NNW 20.7 mph 40.3 mph N/A   Scattered Clouds
10:56 PM 37.9 °F 28.5 °F 21.0 °F 51% 29.95 in 10.0 mi NNW 17.3 mph 27.6 mph N/A   Mostly Cloudy
11:56 PM 37.0 °F 26.2 °F 19.9 °F 50% 29.96 in 10.0 mi NNW 21.9 mph 39.1 mph N/A   Overcast